| time (UTC) | temp F | wind direction | speed MPH | gust MPH | rain 1hr in | rain 24hr in | rain mn in | humidity % | barometer mb |
| 20260505173522 | 63 | 170 | 10.0 | 17.0 | 0.00 | 0.12 | 0.12 | 54 | 1014.9 |
| 20260505173035 | 63 | 172 | 5.0 | 20.0 | 0.00 | 0.12 | 0.12 | 58 | 1014.9 |
| 20260505172521 | 63 | 233 | 11.0 | 20.0 | 0.00 | 0.12 | 0.12 | 60 | 1014.9 |
| 20260505172022 | 62 | 198 | 6.0 | 19.0 | 0.00 | 0.12 | 0.12 | 61 | 1014.8 |
| 20260505171533 | 62 | 159 | 7.0 | 25.0 | 0.00 | 0.12 | 0.12 | 61 | 1014.8 |
| 20260505171023 | 61 | 199 | 8.0 | 25.0 | 0.00 | 0.12 | 0.12 | 64 | 1014.8 |
| 20260505170523 | 60 | 124 | 10.0 | 24.0 | 0.00 | 0.12 | 0.12 | 61 | 1014.7 |
| 20260505170045 | 60 | 167 | 11.0 | 22.0 | 0.00 | 0.12 | 0.12 | 64 | 1014.6 |
| 20260505165523 | 59 | 169 | 9.0 | 17.0 | 0.00 | 0.12 | 0.12 | 67 | 1014.8 |
| 20260505165019 | 59 | 162 | 8.0 | 15.0 | 0.00 | 0.12 | 0.12 | 66 | 1014.9 |
| 20260505164533 | 58 | 188 | 7.0 | 17.0 | 0.00 | 0.12 | 0.12 | 70 | 1014.8 |
| 20260505164024 | 57 | 189 | 6.0 | 18.0 | 0.01 | 0.12 | 0.12 | 68 | 1015.0 |
| 20260505163519 | 57 | 181 | 10.0 | 18.0 | 0.01 | 0.12 | 0.12 | 69 | 1015.0 |
| 20260505163037 | 56 | 170 | 8.0 | 14.0 | 0.01 | 0.12 | 0.12 | 72 | 1015.0 |
| 20260505162521 | 56 | 167 | 7.0 | 16.0 | 0.01 | 0.12 | 0.12 | 71 | 1014.9 |
| 20260505162022 | 55 | 155 | 7.0 | 16.0 | 0.01 | 0.12 | 0.12 | 75 | 1014.9 |
| 20260505161535 | 55 | 194 | 7.0 | 18.0 | 0.01 | 0.12 | 0.12 | 77 | 1015.0 |
| 20260505161022 | 54 | 173 | 9.0 | 18.0 | 0.02 | 0.12 | 0.12 | 77 | 1015.0 |
| 20260505160522 | 54 | 186 | 7.0 | 16.0 | 0.02 | 0.12 | 0.12 | 78 | 1014.8 |
| 20260505153037 | 56 | 152 | 10.0 | 21.0 | 0.09 | 0.11 | 0.11 | 75 | 1014.5 |
| 20260505152523 | 56 | 182 | 9.0 | 17.0 | 0.09 | 0.11 | 0.11 | 81 | 1014.6 |
| 20260505152022 | 54 | 175 | 7.0 | 15.0 | 0.10 | 0.11 | 0.11 | 79 | 1014.3 |
| 20260505151553 | 53 | 161 | 4.0 | 15.0 | 0.10 | 0.11 | 0.11 | 81 | 1014.1 |
| 20260505151022 | 53 | 145 | 8.0 | 15.0 | 0.09 | 0.10 | 0.10 | 79 | 1014.3 |
| 20260505150523 | 53 | 160 | 7.0 | 19.0 | 0.08 | 0.09 | 0.09 | 78 | 1014.5 |
| 20260505140522 | 55 | 148 | 5.0 | 11.0 | 0.01 | 0.01 | 0.01 | 69 | 1013.7 |
| 20260505125022 | 53 | 0 | 0.0 | 4.0 | 0.00 | 0.00 | 0.00 | 79 | 1013.9 |
| 20260505124541 | 52 | 168 | 2.0 | 6.0 | 0.00 | 0.00 | 0.00 | 78 | 1014.3 |
| 20260505124027 | 53 | 168 | 3.0 | 6.0 | 0.00 | 0.00 | 0.00 | 76 | 1014.1 |
| 20260505123522 | 53 | 115 | 1.0 | 7.0 | 0.00 | 0.00 | 0.00 | 77 | 1014.6 |
| 20260505123040 | 53 | 115 | 2.0 | 8.0 | 0.00 | 0.00 | 0.00 | 73 | 1014.5 |
| 20260505122522 | 54 | 118 | 3.0 | 9.0 | 0.00 | 0.00 | 0.00 | 72 | 1014.3 |
| 20260505122022 | 54 | 157 | 3.0 | 9.0 | 0.00 | 0.00 | 0.00 | 68 | 1014.3 |
| 20260505121537 | 54 | 141 | 4.0 | 9.0 | 0.00 | 0.00 | 0.00 | 67 | 1014.3 |
| 20260505121023 | 54 | 160 | 5.0 | 9.0 | 0.00 | 0.00 | 0.00 | 65 | 1014.1 |
| 20260505120524 | 54 | 145 | 5.0 | 11.0 | 0.00 | 0.00 | 0.00 | 65 | 1014.1 |
| 20260505120039 | 55 | 156 | 6.0 | 11.0 | 0.00 | 0.00 | 0.00 | 65 | 1014.0 |
| 20260505115521 | 55 | 163 | 4.0 | 8.0 | 0.00 | 0.00 | 0.00 | 65 | 1014.1 |
| 20260505115023 | 55 | 197 | 4.0 | 8.0 | 0.00 | 0.00 | 0.00 | 64 | 1014.2 |
| 20260505114541 | 55 | 168 | 3.0 | 6.0 | 0.00 | 0.00 | 0.00 | 62 | 1014.3 |
| 20260505114024 | 55 | 190 | 4.0 | 6.0 | 0.00 | 0.00 | 0.00 | 62 | 1014.3 |
| 20260505113522 | 55 | 199 | 3.0 | 6.0 | 0.00 | 0.00 | 0.00 | 61 | 1014.3 |
| 20260505113041 | 55 | 176 | 2.0 | 6.0 | 0.00 | 0.00 | 0.00 | 60 | 1014.6 |
| 20260505112522 | 56 | 167 | 2.0 | 6.0 | 0.00 | 0.00 | 0.00 | 60 | 1014.5 |
| 20260505112022 | 56 | 113 | 1.0 | 7.0 | 0.00 | 0.00 | 0.00 | 59 | 1014.5 |
| 20260505111541 | 56 | 113 | 2.0 | 7.0 | 0.00 | 0.00 | 0.00 | 57 | 1014.7 |
| 20260505111022 | 57 | 173 | 3.0 | 7.0 | 0.00 | 0.00 | 0.00 | 53 | 1014.7 |
| 20260505110523 | 57 | 208 | 5.0 | 7.0 | 0.00 | 0.00 | 0.00 | 52 | 1014.7 |
| 20260505102022 | 57 | 214 | 1.0 | 3.0 | 0.00 | 0.00 | 0.00 | 53 | 1015.0 |
| 20260505101541 | 57 | 0 | 1.0 | 4.0 | 0.00 | 0.00 | 0.00 | 49 | 1014.7 |
| 20260505101022 | 57 | 214 | 1.0 | 6.0 | 0.00 | 0.00 | 0.00 | 49 | 1014.7 |
| 20260505100523 | 57 | 214 | 3.0 | 6.0 | 0.00 | 0.00 | 0.00 | 50 | 1014.7 |
| 20260505100035 | 57 | 203 | 4.0 | 6.0 | 0.00 | 0.00 | 0.00 | 50 | 1014.9 |
| 20260505095522 | 57 | 217 | 2.0 | 7.0 | 0.00 | 0.00 | 0.00 | 50 | 1014.7 |
| 20260505095022 | 57 | 207 | 4.0 | 7.0 | 0.00 | 0.00 | 0.00 | 51 | 1014.9 |
| 20260505094537 | 57 | 222 | 5.0 | 7.0 | 0.00 | 0.00 | 0.00 | 51 | 1014.9 |
| 20260505094022 | 56 | 205 | 4.0 | 6.0 | 0.00 | 0.00 | 0.00 | 52 | 1014.9 |
| 20260505093522 | 56 | 200 | 4.0 | 6.0 | 0.00 | 0.00 | 0.00 | 53 | 1015.1 |
| 20260505093040 | 57 | 163 | 3.0 | 6.0 | 0.00 | 0.00 | 0.00 | 52 | 1015.0 |
| 20260505092522 | 57 | 159 | 2.0 | 6.0 | 0.00 | 0.00 | 0.00 | 51 | 1015.1 |
| 20260505092022 | 58 | 210 | 0.0 | 4.0 | 0.00 | 0.00 | 0.00 | 48 | 1015.1 |
| 20260505091538 | 58 | 210 | 1.0 | 4.0 | 0.00 | 0.00 | 0.00 | 47 | 1015.1 |
| 20260505091024 | 58 | 210 | 1.0 | 4.0 | 0.00 | 0.00 | 0.00 | 47 | 1015.1 |
| 20260505090522 | 58 | 0 | 2.0 | 5.0 | 0.00 | 0.00 | 0.00 | 46 | 1015.1 |
| 20260505090051 | 58 | 210 | 2.0 | 6.0 | 0.00 | 0.00 | 0.00 | 47 | 1015.1 |
| 20260505085524 | 58 | 210 | 2.0 | 6.0 | 0.00 | 0.00 | 0.00 | 46 | 1015.1 |
| 20260505085022 | 58 | 171 | 3.0 | 6.0 | 0.00 | 0.00 | 0.00 | 47 | 1015.4 |
| 20260505084537 | 58 | 171 | 3.0 | 6.0 | 0.00 | 0.00 | 0.00 | 45 | 1015.3 |
| 20260505084022 | 58 | 0 | 1.0 | 6.0 | 0.00 | 0.00 | 0.00 | 44 | 1015.1 |
| 20260505083523 | 57 | 153 | 2.0 | 5.0 | 0.00 | 0.00 | 0.00 | 46 | 1015.1 |
| 20260505083039 | 57 | 203 | 2.0 | 7.0 | 0.00 | 0.00 | 0.00 | 48 | 1015.2 |
| 20260505082522 | 57 | 203 | 3.0 | 7.0 | 0.00 | 0.00 | 0.00 | 48 | 1015.3 |
| 20260505082019 | 57 | 212 | 3.0 | 5.0 | 0.00 | 0.00 | 0.00 | 51 | 1015.7 |
| 20260505081542 | 57 | 196 | 2.0 | 7.0 | 0.00 | 0.00 | 0.00 | 53 | 1015.8 |
| 20260505081023 | 56 | 189 | 4.0 | 7.0 | 0.00 | 0.00 | 0.00 | 52 | 1015.8 |
| 20260505080522 | 57 | 189 | 2.0 | 6.0 | 0.00 | 0.00 | 0.00 | 52 | 1015.7 |
| 20260505080033 | 57 | 181 | 3.0 | 6.0 | 0.00 | 0.00 | 0.00 | 51 | 1015.5 |
| 20260505075522 | 57 | 180 | 3.0 | 7.0 | 0.00 | 0.00 | 0.00 | 50 | 1015.6 |
| 20260505075022 | 57 | 182 | 4.0 | 7.0 | 0.00 | 0.00 | 0.00 | 50 | 1015.5 |
| 20260505074535 | 57 | 202 | 4.0 | 8.0 | 0.00 | 0.00 | 0.00 | 51 | 1015.6 |
| 20260505074022 | 57 | 173 | 3.0 | 8.0 | 0.00 | 0.00 | 0.00 | 52 | 1015.7 |
| 20260505073523 | 57 | 157 | 3.0 | 6.0 | 0.00 | 0.00 | 0.00 | 50 | 1015.8 |
| 20260505073038 | 57 | 208 | 4.0 | 6.0 | 0.00 | 0.00 | 0.00 | 50 | 1015.8 |
| 20260505072523 | 57 | 177 | 4.0 | 6.0 | 0.00 | 0.00 | 0.00 | 49 | 1015.7 |
| 20260505072023 | 58 | 177 | 3.0 | 6.0 | 0.00 | 0.00 | 0.00 | 49 | 1015.6 |
| 20260505071536 | 58 | 0 | 1.0 | 5.0 | 0.00 | 0.00 | 0.00 | 48 | 1015.6 |
| 20260505071022 | 58 | 212 | 4.0 | 6.0 | 0.00 | 0.00 | 0.00 | 49 | 1015.8 |
| 20260505070525 | 58 | 219 | 3.0 | 6.0 | 0.00 | 0.00 | 0.00 | 48 | 1015.8 |
| 20260505070042 | 58 | 211 | 4.0 | 6.0 | 0.00 | 0.00 | 0.00 | 48 | 1015.7 |
| 20260505065524 | 58 | 190 | 2.0 | 5.0 | 0.00 | 0.00 | 0.00 | 48 | 1015.8 |
| 20260505065022 | 58 | 207 | 3.0 | 5.0 | 0.00 | 0.00 | 0.00 | 47 | 1015.8 |
| 20260505064536 | 58 | 213 | 2.0 | 5.0 | 0.00 | 0.00 | 0.00 | 46 | 1015.8 |
| 20260505064022 | 58 | 213 | 2.0 | 5.0 | 0.00 | 0.00 | 0.00 | 47 | 1015.8 |
| 20260505063522 | 58 | 213 | 4.0 | 6.0 | 0.00 | 0.00 | 0.00 | 46 | 1015.8 |
| 20260505063042 | 58 | 203 | 3.0 | 6.0 | 0.00 | 0.00 | 0.00 | 46 | 1015.8 |
| 20260505062524 | 58 | 212 | 4.0 | 8.0 | 0.00 | 0.00 | 0.00 | 46 | 1015.9 |
| 20260505062023 | 58 | 214 | 5.0 | 8.0 | 0.00 | 0.00 | 0.00 | 46 | 1016.0 |
| 20260505061543 | 58 | 173 | 2.0 | 5.0 | 0.00 | 0.00 | 0.00 | 47 | 1015.9 |
| 20260505061027 | 59 | 0 | 0.0 | 3.0 | 0.00 | 0.00 | 0.00 | 46 | 1015.7 |
| 20260505060522 | 59 | 178 | 0.0 | 3.0 | 0.00 | 0.00 | 0.00 | 46 | 1015.9 |
| 20260505060037 | 59 | 0 | 1.0 | 4.0 | 0.00 | 0.00 | 0.00 | 47 | 1016.1 |
| 20260505055523 | 59 | 178 | 1.0 | 5.0 | 0.00 | 0.00 | 0.00 | 46 | 1015.9 |
| 20260505055023 | 59 | 178 | 3.0 | 9.0 | 0.00 | 0.00 | 0.00 | 46 | 1016.0 |
| 20260505054540 | 59 | 178 | 2.0 | 9.0 | 0.00 | 0.00 | 0.00 | 45 | 1016.1 |
| 20260505054026 | 60 | 104 | 4.0 | 10.0 | 0.00 | 0.00 | 0.00 | 42 | 1015.9 |
| 20260505053522 | 60 | 243 | 2.0 | 10.0 | 0.00 | 0.00 | 0.00 | 39 | 1015.9 |
| 20260505053043 | 60 | 271 | 4.0 | 8.0 | 0.00 | 0.00 | 0.00 | 42 | 1015.6 |
| 20260505052522 | 60 | 238 | 4.0 | 13.0 | 0.00 | 0.00 | 0.00 | 41 | 1015.7 |
| 20260505052022 | 60 | 174 | 5.0 | 13.0 | 0.00 | 0.00 | 0.00 | 41 | 1015.5 |
| 20260505051537 | 60 | 171 | 5.0 | 11.0 | 0.00 | 0.00 | 0.00 | 40 | 1015.8 |
| 20260505051022 | 61 | 176 | 6.0 | 11.0 | 0.00 | 0.00 | 0.00 | 39 | 1016.0 |
| 20260505050524 | 63 | 165 | 7.0 | 11.0 | 0.00 | 0.00 | 0.00 | 35 | 1015.9 |
| 20260505041533 | 65 | 53 | 3.0 | 11.0 | 0.00 | 0.00 | 0.00 | 29 | 1016.1 |
| 20260505041022 | 64 | 242 | 3.0 | 20.0 | 0.00 | 0.00 | 0.00 | 30 | 1016.0 |
| 20260505040522 | 64 | 189 | 6.0 | 20.0 | 0.00 | 0.00 | 0.00 | 30 | 1015.9 |
| 20260505040041 | 64 | 325 | 4.0 | 19.0 | 0.00 | 0.00 | 0.00 | 30 | 1015.8 |
| 20260505035522 | 64 | 271 | 11.0 | 19.0 | 0.00 | 0.00 | 0.00 | 30 | 1015.8 |
| 20260505035022 | 64 | 265 | 11.0 | 19.0 | 0.00 | 0.00 | 0.00 | 30 | 1015.7 |
| 20260505034534 | 65 | 293 | 10.0 | 22.0 | 0.00 | 0.00 | 0.00 | 30 | 1015.7 |
| 20260505034023 | 65 | 329 | 14.0 | 22.0 | 0.00 | 0.00 | 0.00 | 30 | 1015.6 |
| 20260505033523 | 65 | 313 | 12.0 | 21.0 | 0.00 | 0.00 | 0.00 | 30 | 1015.5 |
| 20260505033100 | 65 | 305 | 10.0 | 18.0 | 0.00 | 0.00 | 0.00 | 30 | 1015.5 |
| 20260505032522 | 65 | 301 | 10.0 | 17.0 | 0.00 | 0.00 | 0.00 | 30 | 1015.4 |
| 20260505032022 | 65 | 294 | 12.0 | 17.0 | 0.00 | 0.00 | 0.00 | 30 | 1015.3 |
| 20260505031538 | 65 | 335 | 9.0 | 15.0 | 0.00 | 0.00 | 0.00 | 30 | 1015.2 |
| 20260505031022 | 66 | 319 | 9.0 | 17.0 | 0.00 | 0.00 | 0.00 | 30 | 1015.3 |
| 20260505030522 | 66 | 329 | 10.0 | 17.0 | 0.00 | 0.00 | 0.00 | 30 | 1015.3 |
| 20260505030042 | 66 | 325 | 9.0 | 14.0 | 0.00 | 0.00 | 0.00 | 30 | 1015.2 |
| 20260505025524 | 66 | 328 | 9.0 | 15.0 | 0.00 | 0.00 | 0.00 | 30 | 1015.0 |
| 20260505025021 | 66 | 332 | 11.0 | 15.0 | 0.00 | 0.00 | 0.00 | 30 | 1014.9 |
| 20260505024536 | 66 | 311 | 9.0 | 17.0 | 0.00 | 0.00 | 0.00 | 30 | 1015.0 |
| 20260505024023 | 66 | 336 | 10.0 | 18.0 | 0.00 | 0.00 | 0.00 | 29 | 1015.0 |
| 20260505023526 | 66 | 327 | 10.0 | 18.0 | 0.00 | 0.00 | 0.00 | 29 | 1015.2 |
| 20260505023044 | 66 | 317 | 9.0 | 14.0 | 0.00 | 0.00 | 0.00 | 29 | 1015.3 |
| 20260505022527 | 67 | 327 | 9.0 | 15.0 | 0.00 | 0.00 | 0.00 | 29 | 1015.3 |
| 20260505022023 | 67 | 339 | 9.0 | 15.0 | 0.00 | 0.00 | 0.00 | 28 | 1015.1 |
| 20260505021536 | 66 | 345 | 10.0 | 15.0 | 0.00 | 0.00 | 0.00 | 29 | 1015.1 |
| 20260505021026 | 66 | 325 | 8.0 | 15.0 | 0.00 | 0.00 | 0.00 | 29 | 1015.1 |
| 20260505020522 | 67 | 331 | 6.0 | 12.0 | 0.00 | 0.00 | 0.00 | 30 | 1014.9 |
| 20260505020034 | 67 | 342 | 7.0 | 10.0 | 0.00 | 0.00 | 0.00 | 29 | 1014.9 |
| 20260505015522 | 67 | 350 | 1.0 | 8.0 | 0.00 | 0.00 | 0.00 | 29 | 1014.9 |
| 20260505015021 | 67 | 40 | 2.0 | 8.0 | 0.00 | 0.00 | 0.00 | 27 | 1014.9 |
| 20260505014539 | 68 | 5 | 2.0 | 6.0 | 0.00 | 0.00 | 0.00 | 28 | 1015.0 |
| 20260505014022 | 68 | 100 | 0.0 | 8.0 | 0.00 | 0.00 | 0.00 | 27 | 1015.2 |
| 20260505013522 | 69 | 111 | 3.0 | 8.0 | 0.00 | 0.00 | 0.00 | 24 | 1015.1 |
| 20260505013037 | 69 | 280 | 3.0 | 8.0 | 0.00 | 0.00 | 0.00 | 23 | 1015.1 |
| 20260505012522 | 70 | 81 | 2.0 | 12.0 | 0.00 | 0.00 | 0.00 | 21 | 1015.0 |
| 20260505012023 | 70 | 157 | 5.0 | 13.0 | 0.00 | 0.00 | 0.00 | 20 | 1015.1 |
| 20260505011536 | 70 | 188 | 5.0 | 13.0 | 0.00 | 0.00 | 0.00 | 21 | 1015.1 |
| 20260505011022 | 70 | 130 | 3.0 | 8.0 | 0.00 | 0.00 | 0.00 | 20 | 1015.0 |
| 20260505010522 | 71 | 157 | 2.0 | 10.0 | 0.00 | 0.00 | 0.00 | 20 | 1015.0 |
| 20260505010040 | 71 | 262 | 3.0 | 16.0 | 0.00 | 0.00 | 0.00 | 20 | 1015.1 |
| 20260505005522 | 71 | 186 | 3.0 | 16.0 | 0.00 | 0.00 | 0.00 | 19 | 1015.1 |
| 20260505005023 | 71 | 266 | 5.0 | 9.0 | 0.00 | 0.00 | 0.00 | 19 | 1015.1 |
| 20260505004543 | 71 | 0 | 1.0 | 8.0 | 0.00 | 0.00 | 0.00 | 20 | 1014.9 |
| 20260505004023 | 72 | 136 | 5.0 | 12.0 | 0.00 | 0.00 | 0.00 | 20 | 1015.0 |
| 20260505003522 | 72 | 0 | 2.0 | 12.0 | 0.00 | 0.00 | 0.00 | 19 | 1015.1 |
| 20260505003038 | 73 | 9 | 5.0 | 10.0 | 0.00 | 0.00 | 0.00 | 19 | 1014.9 |
| 20260505002522 | 73 | 236 | 1.0 | 14.0 | 0.00 | 0.00 | 0.00 | 19 | 1014.9 |
| 20260505002023 | 73 | 158 | 5.0 | 14.0 | 0.00 | 0.00 | 0.00 | 18 | 1014.8 |
| 20260505001537 | 73 | 205 | 5.0 | 12.0 | 0.00 | 0.00 | 0.00 | 19 | 1014.6 |
| 20260505001022 | 74 | 182 | 4.0 | 11.0 | 0.00 | 0.00 | 0.00 | 18 | 1014.6 |
| 20260505000526 | 73 | 129 | 5.0 | 15.0 | 0.00 | 0.00 | 0.00 | 19 | 1014.5 |
| 20260505000037 | 73 | 0 | 4.0 | 15.0 | 0.00 | 0.00 | 0.00 | 18 | 1014.6 |
| 20260504235523 | 73 | 252 | 6.0 | 10.0 | 0.00 | 0.00 | 0.00 | 18 | 1014.6 |
| 20260504235022 | 74 | 179 | 5.0 | 12.0 | 0.00 | 0.00 | 0.00 | 19 | 1014.5 |
| 20260504234548 | 74 | 350 | 6.0 | 15.0 | 0.00 | 0.00 | 0.00 | 18 | 1014.6 |
| 20260504234022 | 74 | 165 | 6.0 | 19.0 | 0.00 | 0.00 | 0.00 | 17 | 1014.4 |
| 20260504233523 | 74 | 151 | 6.0 | 19.0 | 0.00 | 0.00 | 0.00 | 18 | 1014.5 |
| 20260504233035 | 74 | 132 | 7.0 | 18.0 | 0.00 | 0.00 | 0.00 | 18 | 1014.6 |
| 20260504232523 | 74 | 190 | 10.0 | 21.0 | 0.00 | 0.00 | 0.00 | 18 | 1014.4 |
| 20260504232022 | 74 | 271 | 10.0 | 21.0 | 0.00 | 0.00 | 0.00 | 18 | 1014.3 |
| 20260504231550 | 75 | 177 | 9.0 | 21.0 | 0.00 | 0.00 | 0.00 | 18 | 1014.3 |
| 20260504231022 | 76 | 193 | 7.0 | 16.0 | 0.00 | 0.00 | 0.00 | 18 | 1014.2 |
| 20260504230522 | 76 | 163 | 4.0 | 17.0 | 0.00 | 0.00 | 0.00 | 17 | 1014.2 |
| 20260504230037 | 76 | 157 | 8.0 | 17.0 | 0.00 | 0.00 | 0.00 | 17 | 1014.5 |
| 20260504225525 | 76 | 127 | 7.0 | 13.0 | 0.00 | 0.00 | 0.00 | 16 | 1014.6 |
| 20260504225024 | 76 | 331 | 4.0 | 20.0 | 0.00 | 0.00 | 0.00 | 18 | 1014.7 |
| 20260504224536 | 76 | 142 | 8.0 | 20.0 | 0.00 | 0.00 | 0.00 | 18 | 1014.9 |
| 20260504224022 | 76 | 192 | 11.0 | 20.0 | 0.00 | 0.00 | 0.00 | 18 | 1014.6 |
| 20260504223524 | 76 | 244 | 9.0 | 18.0 | 0.00 | 0.00 | 0.00 | 18 | 1014.4 |
| 20260504223033 | 76 | 146 | 7.0 | 14.0 | 0.00 | 0.00 | 0.00 | 18 | 1014.4 |
| 20260504222526 | 76 | 275 | 3.0 | 16.0 | 0.00 | 0.00 | 0.00 | 19 | 1014.5 |
| 20260504222022 | 76 | 44 | 6.0 | 19.0 | 0.00 | 0.00 | 0.00 | 19 | 1014.4 |
| 20260504221533 | 77 | 165 | 9.0 | 19.0 | 0.00 | 0.00 | 0.00 | 19 | 1014.4 |
| 20260504221027 | 77 | 186 | 10.0 | 19.0 | 0.00 | 0.00 | 0.00 | 19 | 1014.6 |
| 20260504220522 | 76 | 130 | 5.0 | 10.0 | 0.00 | 0.00 | 0.00 | 20 | 1014.7 |
| 20260504220040 | 77 | 135 | 3.0 | 15.0 | 0.00 | 0.00 | 0.00 | 20 | 1014.9 |
| 20260504215522 | 75 | 246 | 4.0 | 24.0 | 0.00 | 0.00 | 0.00 | 20 | 1014.9 |
| 20260504215023 | 76 | 211 | 11.0 | 24.0 | 0.00 | 0.00 | 0.00 | 21 | 1015.2 |
| 20260504214540 | 76 | 163 | 11.0 | 24.0 | 0.00 | 0.00 | 0.00 | 22 | 1014.8 |
| 20260504214024 | 76 | 173 | 11.0 | 24.0 | 0.00 | 0.00 | 0.00 | 21 | 1014.9 |
| 20260504213526 | 76 | 155 | 14.0 | 24.0 | 0.00 | 0.00 | 0.00 | 21 | 1015.0 |
| 20260504213036 | 76 | 189 | 7.0 | 20.0 | 0.00 | 0.00 | 0.00 | 21 | 1015.1 |
| 20260504212522 | 76 | 217 | 11.0 | 20.0 | 0.00 | 0.00 | 0.00 | 21 | 1015.1 |
| 20260504212021 | 76 | 141 | 7.0 | 18.0 | 0.00 | 0.00 | 0.00 | 21 | 1015.2 |
| 20260504211532 | 76 | 135 | 7.0 | 20.0 | 0.00 | 0.00 | 0.00 | 21 | 1015.3 |
| 20260504211022 | 76 | 220 | 4.0 | 24.0 | 0.00 | 0.00 | 0.00 | 21 | 1015.2 |
| 20260504210525 | 77 | 184 | 12.0 | 24.0 | 0.00 | 0.00 | 0.00 | 20 | 1015.4 |
| 20260504210105 | 78 | 179 | 8.0 | 27.0 | 0.00 | 0.00 | 0.00 | 20 | 1015.1 |
| 20260504205526 | 77 | 130 | 9.0 | 27.0 | 0.00 | 0.00 | 0.00 | 19 | 1015.4 |
| 20260504205022 | 79 | 165 | 7.0 | 18.0 | 0.00 | 0.00 | 0.00 | 20 | 1015.3 |
| 20260504204618 | 77 | 142 | 6.0 | 21.0 | 0.00 | 0.00 | 0.00 | 22 | 1015.6 |
| 20260504204022 | 78 | 180 | 11.0 | 21.0 | 0.00 | 0.00 | 0.00 | 20 | 1015.5 |
| 20260504203522 | 78 | 180 | 11.0 | 23.0 | 0.00 | 0.00 | 0.00 | 20 | 1015.5 |
| 20260504203038 | 78 | 192 | 12.0 | 23.0 | 0.00 | 0.00 | 0.00 | 20 | 1015.6 |
| 20260504202522 | 77 | 173 | 8.0 | 18.0 | 0.00 | 0.00 | 0.00 | 21 | 1015.6 |
| 20260504202021 | 76 | 134 | 4.0 | 18.0 | 0.00 | 0.00 | 0.00 | 21 | 1015.6 |
| 20260504201536 | 76 | 141 | 11.0 | 18.0 | 0.00 | 0.00 | 0.00 | 20 | 1015.7 |
| 20260504201023 | 76 | 176 | 10.0 | 17.0 | 0.00 | 0.00 | 0.00 | 19 | 1015.7 |
| 20260504200524 | 77 | 126 | 6.0 | 18.0 | 0.00 | 0.00 | 0.00 | 21 | 1015.7 |
| 20260504200039 | 76 | 123 | 8.0 | 22.0 | 0.00 | 0.00 | 0.00 | 20 | 1015.8 |
| 20260504195522 | 77 | 144 | 10.0 | 22.0 | 0.00 | 0.00 | 0.00 | 20 | 1015.9 |
| 20260504195023 | 75 | 164 | 5.0 | 20.0 | 0.00 | 0.00 | 0.00 | 21 | 1015.9 |
| 20260504194545 | 76 | 194 | 9.0 | 20.0 | 0.00 | 0.00 | 0.00 | 20 | 1016.0 |
| 20260504194025 | 77 | 225 | 6.0 | 24.0 | 0.00 | 0.00 | 0.00 | 21 | 1016.0 |
| 20260504193523 | 75 | 101 | 12.0 | 24.0 | 0.00 | 0.00 | 0.00 | 18 | 1015.9 |
| 20260504193039 | 76 | 250 | 9.0 | 22.0 | 0.00 | 0.00 | 0.00 | 19 | 1015.9 |
| 20260504192526 | 75 | 126 | 13.0 | 22.0 | 0.00 | 0.00 | 0.00 | 19 | 1016.1 |
| 20260504192022 | 76 | 117 | 11.0 | 19.0 | 0.00 | 0.00 | 0.00 | 21 | 1016.3 |
| 20260504191543 | 75 | 113 | 8.0 | 19.0 | 0.00 | 0.00 | 0.00 | 23 | 1016.3 |
| 20260504191022 | 75 | 102 | 11.0 | 20.0 | 0.00 | 0.00 | 0.00 | 21 | 1016.1 |
| 20260504190522 | 75 | 132 | 13.0 | 20.0 | 0.00 | 0.00 | 0.00 | 24 | 1016.4 |
| 20260504190042 | 76 | 121 | 10.0 | 23.0 | 0.00 | 0.00 | 0.00 | 23 | 1016.3 |
| 20260504185521 | 75 | 148 | 13.0 | 25.0 | 0.00 | 0.00 | 0.00 | 21 | 1016.3 |
| 20260504185022 | 75 | 163 | 11.0 | 25.0 | 0.00 | 0.00 | 0.00 | 20 | 1016.4 |
| 20260504184537 | 76 | 166 | 12.0 | 24.0 | 0.00 | 0.00 | 0.00 | 19 | 1016.4 |
| 20260504184024 | 74 | 185 | 10.0 | 21.0 | 0.00 | 0.00 | 0.00 | 21 | 1016.3 |
| 20260504183524 | 73 | 153 | 12.0 | 21.0 | 0.00 | 0.00 | 0.00 | 21 | 1016.5 |
| 20260504183034 | 75 | 154 | 7.0 | 15.0 | 0.00 | 0.00 | 0.00 | 21 | 1016.6 |
| 20260504182521 | 75 | 135 | 7.0 | 20.0 | 0.00 | 0.00 | 0.00 | 21 | 1016.6 |
| 20260504182022 | 74 | 109 | 6.0 | 20.0 | 0.00 | 0.00 | 0.00 | 23 | 1016.8 |
| 20260504181540 | 74 | 105 | 5.0 | 13.0 | 0.00 | 0.00 | 0.00 | 22 | 1016.8 |
| 20260504181022 | 74 | 164 | 5.0 | 15.0 | 0.00 | 0.00 | 0.00 | 21 | 1016.8 |
| 20260504180522 | 74 | 169 | 8.0 | 17.0 | 0.00 | 0.00 | 0.00 | 23 | 1016.7 |
| 20260504180040 | 74 | 130 | 9.0 | 19.0 | 0.00 | 0.00 | 0.00 | 23 | 1016.8 |
| 20260504175557 | 74 | 156 | 8.0 | 19.0 | 0.00 | 0.00 | 0.00 | 24 | 1016.6 |
| 20260504175024 | 74 | 124 | 8.0 | 15.0 | 0.00 | 0.00 | 0.00 | 24 | 1016.6 |
| 20260504174536 | 73 | 132 | 5.0 | 9.0 | 0.00 | 0.00 | 0.00 | 26 | 1016.8 |
| 20260504174023 | 72 | 189 | 2.0 | 6.0 | 0.00 | 0.00 | 0.00 | 21 | 1017.0 |